Time,TemperatureF,DewpointF,PressureIn,WindDirection,WindDirectionDegrees,WindSpeedMPH,WindSpeedGustMPH,Humidity,HourlyPrecipIn,Conditions,Clouds,dailyrainin,SolarRadiationWatts/m^2,SoftwareType,DateUTC
2013-01-25 00:03:00,19.0,3.0,-100.00,North,-999,-999.0,-999.0,49,0.00,,,0.00,0.000000,,2013-01-25 05:03:00,
2013-01-25 00:10:00,18.0,4.0,-100.00,North,-999,-999.0,-999.0,53,0.00,,,0.00,0.000000,,2013-01-25 05:10:00,
2013-01-25 00:32:00,18.0,4.0,-100.00,North,-999,-999.0,-999.0,53,0.00,,,0.00,0.000000,,2013-01-25 05:32:00,
2013-01-25 00:43:00,18.0,4.0,-100.00,North,-999,-999.0,-999.0,53,0.00,,,0.00,0.000000,,2013-01-25 05:43:00,
2013-01-25 00:52:00,18.0,4.0,-100.00,North,-999,-999.0,-999.0,53,0.00,,,0.00,0.000000,,2013-01-25 05:52:00,
2013-01-25 01:02:00,18.0,4.0,-100.00,North,-999,-999.0,-999.0,53,0.00,,,0.00,0.000000,,2013-01-25 06:02:00,
2013-01-25 01:10:00,17.0,3.0,-100.00,North,-999,-999.0,-999.0,54,0.00,,,0.00,0.000000,,2013-01-25 06:10:00,
2013-01-25 01:32:00,17.0,3.0,-100.00,North,-999,-999.0,-999.0,54,0.00,,,0.00,0.000000,,2013-01-25 06:32:00,
2013-01-25 01:42:00,17.0,3.0,-100.00,North,-999,-999.0,-999.0,54,0.00,,,0.00,0.000000,,2013-01-25 06:42:00,
2013-01-25 01:52:00,17.0,3.0,-100.00,North,-999,-999.0,-999.0,54,0.00,,,0.00,0.000000,,2013-01-25 06:52:00,
2013-01-25 02:02:00,17.0,3.0,-100.00,North,-999,-999.0,-999.0,54,0.00,,,0.00,0.000000,,2013-01-25 07:02:00,
2013-01-25 02:10:00,18.0,5.0,-100.00,North,-999,-999.0,-999.0,55,0.00,,,0.00,0.000000,,2013-01-25 07:10:00,
2013-01-25 02:32:00,18.0,5.0,-100.00,North,-999,-999.0,-999.0,55,0.00,,,0.00,0.000000,,2013-01-25 07:32:00,
2013-01-25 02:42:00,18.0,5.0,-100.00,North,-999,-999.0,-999.0,55,0.00,,,0.00,0.000000,,2013-01-25 07:42:00,
2013-01-25 02:52:00,18.0,5.0,-100.00,North,-999,-999.0,-999.0,55,0.00,,,0.00,0.000000,,2013-01-25 07:52:00,
2013-01-25 03:02:00,18.0,5.0,-100.00,North,-999,-999.0,-999.0,55,0.00,,,0.00,0.000000,,2013-01-25 08:02:00,
2013-01-25 03:10:00,18.0,3.0,-100.00,North,-999,-999.0,-999.0,50,0.00,,,0.00,0.000000,,2013-01-25 08:10:00,
2013-01-25 03:32:00,18.0,3.0,-100.00,North,-999,-999.0,-999.0,50,0.00,,,0.00,0.000000,,2013-01-25 08:32:00,
2013-01-25 03:42:00,18.0,3.0,-100.00,North,-999,-999.0,-999.0,50,0.00,,,0.00,0.000000,,2013-01-25 08:42:00,
2013-01-25 03:52:00,18.0,3.0,-100.00,North,-999,-999.0,-999.0,50,0.00,,,0.00,0.000000,,2013-01-25 08:52:00,
2013-01-25 04:02:00,18.0,3.0,-100.00,North,-999,-999.0,-999.0,50,0.00,,,0.00,0.000000,,2013-01-25 09:02:00,
2013-01-25 04:10:00,18.0,3.0,-100.00,North,-999,-999.0,-999.0,52,0.00,,,0.00,0.000000,,2013-01-25 09:10:00,
2013-01-25 04:32:00,18.0,3.0,-100.00,North,-999,-999.0,-999.0,52,0.00,,,0.00,0.000000,,2013-01-25 09:32:00,
2013-01-25 04:42:00,18.0,3.0,-100.00,North,-999,-999.0,-999.0,52,0.00,,,0.00,0.000000,,2013-01-25 09:42:00,
2013-01-25 04:52:00,18.0,3.0,-100.00,North,-999,-999.0,-999.0,52,0.00,,,0.00,0.000000,,2013-01-25 09:52:00,
2013-01-25 05:02:00,18.0,3.0,-100.00,North,-999,-999.0,-999.0,52,0.00,,,0.00,0.000000,,2013-01-25 10:02:00,
2013-01-25 05:10:00,18.0,3.0,-100.00,North,-999,-999.0,-999.0,52,0.00,,,0.00,0.000000,,2013-01-25 10:10:00,
2013-01-25 05:42:00,18.0,3.0,-100.00,North,-999,-999.0,-999.0,52,0.00,,,0.00,0.000000,,2013-01-25 10:42:00,
2013-01-25 05:52:00,18.0,3.0,-100.00,North,-999,-999.0,-999.0,52,0.00,,,0.00,0.000000,,2013-01-25 10:52:00,
2013-01-25 06:03:00,18.0,3.0,-100.00,North,-999,-999.0,-999.0,52,0.00,,,0.00,0.000000,,2013-01-25 11:03:00,
2013-01-25 06:10:00,19.0,4.0,-100.00,North,-999,-999.0,-999.0,51,0.00,,,0.00,0.000000,,2013-01-25 11:10:00,
2013-01-25 06:33:00,19.0,4.0,-100.00,North,-999,-999.0,-999.0,51,0.00,,,0.00,0.000000,,2013-01-25 11:33:00,
2013-01-25 06:42:00,19.0,4.0,-100.00,North,-999,-999.0,-999.0,51,0.00,,,0.00,0.000000,,2013-01-25 11:42:00,
2013-01-25 06:52:00,19.0,4.0,-100.00,North,-999,-999.0,-999.0,51,0.00,,,0.00,0.000000,,2013-01-25 11:52:00,
2013-01-25 07:03:00,19.0,4.0,-100.00,North,-999,-999.0,-999.0,51,0.00,,,0.00,0.000000,,2013-01-25 12:03:00,
2013-01-25 07:10:00,19.0,6.0,-100.00,North,-999,-999.0,-999.0,56,0.00,,,0.00,0.000000,,2013-01-25 12:10:00,
2013-01-25 07:33:00,19.0,6.0,-100.00,North,-999,-999.0,-999.0,56,0.00,,,0.00,0.000000,,2013-01-25 12:33:00,
2013-01-25 07:42:00,19.0,6.0,-100.00,North,-999,-999.0,-999.0,56,0.00,,,0.00,0.000000,,2013-01-25 12:42:00,
2013-01-25 07:53:00,19.0,6.0,-100.00,North,-999,-999.0,-999.0,56,0.00,,,0.00,0.000000,,2013-01-25 12:53:00,
2013-01-25 08:03:00,19.0,6.0,-100.00,North,-999,-999.0,-999.0,56,0.00,,,0.00,0.000000,,2013-01-25 13:03:00,
2013-01-25 08:10:00,19.0,8.0,-100.00,North,-999,-999.0,-999.0,61,0.00,,,-99.99,0.000000,,2013-01-25 13:10:00,
2013-01-25 08:33:00,19.0,8.0,-100.00,North,-999,-999.0,-999.0,61,0.00,,,-99.99,0.000000,,2013-01-25 13:33:00,
2013-01-25 08:43:00,19.0,8.0,-100.00,North,-999,-999.0,-999.0,61,0.00,,,-99.99,0.000000,,2013-01-25 13:43:00,
2013-01-25 08:53:00,19.0,8.0,-100.00,North,-999,-999.0,-999.0,61,0.00,,,-99.99,0.000000,,2013-01-25 13:53:00,
2013-01-25 09:03:00,19.0,8.0,-100.00,North,-999,-999.0,-999.0,61,0.00,,,-99.99,0.000000,,2013-01-25 14:03:00,
2013-01-25 09:10:00,17.0,13.0,-100.00,North,-999,-999.0,-999.0,83,0.00,,,0.00,0.000000,,2013-01-25 14:10:00,
2013-01-25 09:33:00,17.0,13.0,-100.00,North,-999,-999.0,-999.0,83,0.00,,,0.00,0.000000,,2013-01-25 14:33:00,
2013-01-25 09:42:00,17.0,13.0,-100.00,North,-999,-999.0,-999.0,83,0.00,,,0.00,0.000000,,2013-01-25 14:42:00,
2013-01-25 09:53:00,17.0,13.0,-100.00,North,-999,-999.0,-999.0,83,0.00,,,0.00,0.000000,,2013-01-25 14:53:00,
2013-01-25 10:03:00,17.0,13.0,-100.00,North,-999,-999.0,-999.0,83,0.00,,,0.00,0.000000,,2013-01-25 15:03:00,
2013-01-25 10:10:00,18.0,15.0,-100.00,North,-999,-999.0,-999.0,87,0.00,,,0.00,0.000000,,2013-01-25 15:10:00,
2013-01-25 10:33:00,18.0,15.0,-100.00,North,-999,-999.0,-999.0,87,0.00,,,0.00,0.000000,,2013-01-25 15:33:00,
2013-01-25 10:43:00,18.0,15.0,-100.00,North,-999,-999.0,-999.0,87,0.00,,,0.00,0.000000,,2013-01-25 15:43:00,
2013-01-25 10:53:00,18.0,15.0,-100.00,North,-999,-999.0,-999.0,87,0.00,,,0.00,0.000000,,2013-01-25 15:53:00,
2013-01-25 11:03:00,18.0,15.0,-100.00,North,-999,-999.0,-999.0,87,0.00,,,0.00,0.000000,,2013-01-25 16:03:00,
2013-01-25 11:10:00,18.0,15.0,-100.00,North,-999,-999.0,-999.0,89,0.00,,,0.00,0.000000,,2013-01-25 16:10:00,
2013-01-25 11:43:00,18.0,15.0,-100.00,North,-999,-999.0,-999.0,89,0.00,,,0.00,0.000000,,2013-01-25 16:43:00,
2013-01-25 11:53:00,18.0,15.0,-100.00,North,-999,-999.0,-999.0,89,0.00,,,0.00,0.000000,,2013-01-25 16:53:00,
2013-01-25 12:03:00,18.0,15.0,-100.00,North,-999,-999.0,-999.0,89,0.00,,,0.00,0.000000,,2013-01-25 17:03:00,
2013-01-25 12:10:00,19.0,15.0,-100.00,North,-999,-999.0,-999.0,84,0.00,,,0.00,0.000000,,2013-01-25 17:10:00,
2013-01-25 12:43:00,19.0,15.0,-100.00,North,-999,-999.0,-999.0,84,0.00,,,0.00,0.000000,,2013-01-25 17:43:00,
2013-01-25 12:53:00,19.0,15.0,-100.00,North,-999,-999.0,-999.0,84,0.00,,,0.00,0.000000,,2013-01-25 17:53:00,
2013-01-25 13:03:00,19.0,15.0,-100.00,North,-999,-999.0,-999.0,84,0.00,,,0.00,0.000000,,2013-01-25 18:03:00,
2013-01-25 13:10:00,20.0,16.0,-100.00,North,-999,-999.0,-999.0,86,0.00,,,0.00,0.000000,,2013-01-25 18:10:00,
2013-01-25 13:43:00,20.0,16.0,-100.00,North,-999,-999.0,-999.0,86,0.00,,,0.00,0.000000,,2013-01-25 18:43:00,
2013-01-25 13:53:00,20.0,16.0,-100.00,North,-999,-999.0,-999.0,86,0.00,,,0.00,0.000000,,2013-01-25 18:53:00,
2013-01-25 14:03:00,20.0,16.0,-100.00,North,-999,-999.0,-999.0,86,0.00,,,0.00,0.000000,,2013-01-25 19:03:00,
2013-01-25 14:10:00,19.0,17.0,-100.00,North,-999,-999.0,-999.0,92,0.00,,,0.00,0.000000,,2013-01-25 19:10:00,
2013-01-25 14:42:00,19.0,17.0,-100.00,North,-999,-999.0,-999.0,92,0.00,,,0.00,0.000000,,2013-01-25 19:42:00,
2013-01-25 14:53:00,19.0,17.0,-100.00,North,-999,-999.0,-999.0,92,0.00,,,0.00,0.000000,,2013-01-25 19:53:00,
2013-01-25 15:03:00,19.0,17.0,-100.00,North,-999,-999.0,-999.0,92,0.00,,,0.00,0.000000,,2013-01-25 20:03:00,
2013-01-25 15:10:00,20.0,18.0,-100.00,North,-999,-999.0,-999.0,93,0.00,,,0.00,0.000000,,2013-01-25 20:10:00,
2013-01-25 15:43:00,20.0,18.0,-100.00,North,-999,-999.0,-999.0,93,0.00,,,0.00,0.000000,,2013-01-25 20:43:00,
2013-01-25 15:53:00,20.0,18.0,-100.00,North,-999,-999.0,-999.0,93,0.00,,,0.00,0.000000,,2013-01-25 20:53:00,
2013-01-25 16:02:00,20.0,18.0,-100.00,North,-999,-999.0,-999.0,93,0.00,,,0.00,0.000000,,2013-01-25 21:02:00,
2013-01-25 16:10:00,20.0,19.0,-100.00,North,-999,-999.0,-999.0,95,0.00,,,0.00,0.000000,,2013-01-25 21:10:00,
2013-01-25 16:43:00,20.0,19.0,-100.00,North,-999,-999.0,-999.0,95,0.00,,,0.00,0.000000,,2013-01-25 21:43:00,
2013-01-25 16:52:00,20.0,19.0,-100.00,North,-999,-999.0,-999.0,95,0.00,,,0.00,0.000000,,2013-01-25 21:52:00,
2013-01-25 17:03:00,20.0,19.0,-100.00,North,-999,-999.0,-999.0,95,0.00,,,0.00,0.000000,,2013-01-25 22:03:00,
2013-01-25 17:10:00,20.0,19.0,-100.00,North,-999,-999.0,-999.0,95,0.00,,,0.00,0.000000,,2013-01-25 22:10:00,
2013-01-25 17:42:00,20.0,19.0,-100.00,North,-999,-999.0,-999.0,95,0.00,,,0.00,0.000000,,2013-01-25 22:42:00,
2013-01-25 17:53:00,20.0,19.0,-100.00,North,-999,-999.0,-999.0,95,0.00,,,0.00,0.000000,,2013-01-25 22:53:00,
2013-01-25 18:02:00,20.0,19.0,-100.00,North,-999,-999.0,-999.0,95,0.00,,,0.00,0.000000,,2013-01-25 23:02:00,
2013-01-25 18:10:00,20.0,19.0,-100.00,North,-999,-999.0,-999.0,96,0.00,,,0.00,0.000000,,2013-01-25 23:10:00,
2013-01-25 18:42:00,20.0,19.0,-100.00,North,-999,-999.0,-999.0,96,0.00,,,0.00,0.000000,,2013-01-25 23:42:00,
2013-01-25 18:53:00,20.0,19.0,-100.00,North,-999,-999.0,-999.0,96,0.00,,,0.00,0.000000,,2013-01-25 23:53:00,
2013-01-25 19:02:00,20.0,19.0,-100.00,North,-999,-999.0,-999.0,96,0.00,,,0.00,0.000000,,2013-01-26 00:02:00,
2013-01-25 19:10:00,21.0,20.0,-100.00,North,-999,-999.0,-999.0,96,0.00,,,0.00,0.000000,,2013-01-26 00:10:00,
2013-01-25 19:42:00,21.0,20.0,-100.00,North,-999,-999.0,-999.0,96,0.00,,,0.00,0.000000,,2013-01-26 00:42:00,
2013-01-25 19:53:00,21.0,20.0,-100.00,North,-999,-999.0,-999.0,96,0.00,,,0.00,0.000000,,2013-01-26 00:53:00,
2013-01-25 20:02:00,21.0,20.0,-100.00,North,-999,-999.0,-999.0,96,0.00,,,0.00,0.000000,,2013-01-26 01:02:00,
2013-01-25 20:10:00,21.0,20.0,-100.00,North,-999,-999.0,-999.0,97,0.00,,,0.00,0.000000,,2013-01-26 01:10:00,
2013-01-25 20:32:00,21.0,20.0,-100.00,North,-999,-999.0,-999.0,97,0.00,,,0.00,0.000000,,2013-01-26 01:32:00,
2013-01-25 20:42:00,21.0,20.0,-100.00,North,-999,-999.0,-999.0,97,0.00,,,0.00,0.000000,,2013-01-26 01:42:00,
2013-01-25 20:52:00,21.0,20.0,-100.00,North,-999,-999.0,-999.0,97,0.00,,,0.00,0.000000,,2013-01-26 01:52:00,
2013-01-25 21:02:00,21.0,20.0,-100.00,North,-999,-999.0,-999.0,97,0.00,,,0.00,0.000000,,2013-01-26 02:02:00,
2013-01-25 21:10:00,22.0,21.0,-100.00,North,-999,-999.0,-999.0,97,0.00,,,0.00,0.000000,,2013-01-26 02:10:00,
2013-01-25 21:42:00,22.0,21.0,-100.00,North,-999,-999.0,-999.0,97,0.00,,,0.00,0.000000,,2013-01-26 02:42:00,
2013-01-25 21:52:00,22.0,21.0,-100.00,North,-999,-999.0,-999.0,97,0.00,,,0.00,0.000000,,2013-01-26 02:52:00,
2013-01-25 22:02:00,22.0,21.0,-100.00,North,-999,-999.0,-999.0,97,0.00,,,0.00,0.000000,,2013-01-26 03:02:00,
2013-01-25 22:10:00,21.0,20.0,-100.00,North,-999,-999.0,-999.0,96,0.00,,,0.00,0.000000,,2013-01-26 03:10:00,
2013-01-25 22:32:00,21.0,20.0,-100.00,North,-999,-999.0,-999.0,96,0.00,,,0.00,0.000000,,2013-01-26 03:32:00,
2013-01-25 22:43:00,21.0,20.0,-100.00,North,-999,-999.0,-999.0,96,0.00,,,0.00,0.000000,,2013-01-26 03:43:00,
2013-01-25 22:52:00,21.0,20.0,-100.00,North,-999,-999.0,-999.0,96,0.00,,,0.00,0.000000,,2013-01-26 03:52:00,
2013-01-25 23:02:00,21.0,20.0,-100.00,North,-999,-999.0,-999.0,96,0.00,,,0.00,0.000000,,2013-01-26 04:02:00,
2013-01-25 23:10:00,26.0,26.0,-100.00,North,-999,-999.0,-999.0,99,0.00,,,0.00,0.000000,,2013-01-26 04:10:00,
2013-01-25 23:32:00,26.0,26.0,-100.00,North,-999,-999.0,-999.0,99,0.00,,,0.00,0.000000,,2013-01-26 04:32:00,
2013-01-25 23:43:00,26.0,26.0,-100.00,North,-999,-999.0,-999.0,99,0.00,,,0.00,0.000000,,2013-01-26 04:43:00,
2013-01-25 23:52:00,26.0,26.0,-100.00,North,-999,-999.0,-999.0,99,0.00,,,0.00,0.000000,,2013-01-26 04:52:00,